| time (UTC) | temp C | wind direction | speed KPH | gust KPH | rain 1hr cm | rain 24hr cm | rain mn cm | humidity % | barometer mb |
| 20260507203026 | 6 | 52 | 0.0 | 8.0 | 0.00 | 1.24 | 1.24 | 99 | 1017.2 |
| 20260507202523 | 6 | 74 | 1.6 | 6.4 | 0.00 | 1.24 | 1.24 | 99 | 1017.1 |
| 20260507202026 | 6 | 79 | 3.2 | 6.4 | 0.00 | 1.24 | 1.24 | 99 | 1017.1 |
| 20260507201522 | 6 | 51 | 0.0 | 4.8 | 0.00 | 1.24 | 1.24 | 99 | 1017.1 |
| 20260507201022 | 6 | 95 | 1.6 | 9.7 | 0.00 | 1.24 | 1.24 | 99 | 1016.9 |
| 20260507200521 | 6 | 92 | 1.6 | 9.7 | 0.00 | 1.24 | 1.24 | 99 | 1016.9 |
| 20260507200022 | 6 | 113 | 1.6 | 12.9 | 0.00 | 1.24 | 1.24 | 99 | 1016.9 |
| 20260507195522 | 6 | 80 | 1.6 | 4.8 | 0.00 | 1.24 | 1.24 | 99 | 1016.8 |
| 20260507195020 | 6 | 81 | 0.0 | 11.3 | 0.00 | 1.24 | 1.24 | 99 | 1016.6 |
| 20260507194531 | 6 | 71 | 4.8 | 14.5 | 0.00 | 1.24 | 1.24 | 99 | 1016.6 |
| 20260507194018 | 6 | 315 | 1.6 | 14.5 | 0.00 | 1.24 | 1.24 | 99 | 1016.5 |
| 20260507193519 | 6 | 117 | 0.0 | 9.7 | 0.03 | 1.24 | 1.24 | 99 | 1016.5 |
| 20260507193018 | 6 | 128 | 1.6 | 9.7 | 0.03 | 1.24 | 1.24 | 99 | 1016.5 |
| 20260507192517 | 6 | 82 | 1.6 | 9.7 | 0.03 | 1.24 | 1.24 | 99 | 1016.3 |
| 20260507192015 | 6 | 59 | 1.6 | 8.0 | 0.03 | 1.24 | 1.24 | 99 | 1016.3 |
| 20260507191514 | 6 | 98 | 3.2 | 9.7 | 0.03 | 1.24 | 1.24 | 99 | 1016.2 |
| 20260507191018 | 6 | 110 | 1.6 | 9.7 | 0.03 | 1.24 | 1.24 | 99 | 1016.1 |
| 20260507190513 | 6 | 86 | 1.6 | 9.7 | 0.03 | 1.24 | 1.24 | 99 | 1016.1 |
| 20260507190018 | 6 | 49 | 3.2 | 8.0 | 0.03 | 1.24 | 1.24 | 99 | 1016.0 |
| 20260507185514 | 6 | 87 | 0.0 | 8.0 | 0.03 | 1.24 | 1.24 | 99 | 1015.9 |
| 20260507185013 | 6 | 67 | 0.0 | 9.7 | 0.03 | 1.24 | 1.24 | 99 | 1015.8 |
| 20260507184510 | 6 | 119 | 1.6 | 11.3 | 0.03 | 1.24 | 1.24 | 99 | 1015.7 |
| 20260507184011 | 6 | 110 | 1.6 | 11.3 | 0.03 | 1.24 | 1.24 | 99 | 1015.7 |
| 20260507183509 | 6 | 62 | 1.6 | 8.0 | 0.00 | 1.22 | 1.22 | 98 | 1015.6 |
| 20260507183013 | 6 | 73 | 1.6 | 9.7 | 0.00 | 1.22 | 1.22 | 98 | 1015.5 |
| 20260507182508 | 7 | 91 | 1.6 | 9.7 | 0.00 | 1.22 | 1.22 | 99 | 1015.5 |
| 20260507182009 | 7 | 109 | 3.2 | 9.7 | 0.00 | 1.22 | 1.22 | 99 | 1015.5 |
| 20260507181506 | 7 | 134 | 1.6 | 4.8 | 0.00 | 1.22 | 1.22 | 99 | 1015.3 |
| 20260507181006 | 7 | 137 | 0.0 | 4.8 | 0.03 | 1.22 | 1.22 | 99 | 1015.2 |
| 20260507180505 | 7 | 163 | 1.6 | 12.9 | 0.03 | 1.22 | 1.22 | 98 | 1015.3 |
| 20260507180005 | 7 | 123 | 1.6 | 12.9 | 0.03 | 1.22 | 1.22 | 98 | 1015.2 |
| 20260507175504 | 7 | 243 | 0.0 | 6.4 | 0.03 | 1.22 | 1.22 | 98 | 1015.2 |
| 20260507175004 | 7 | 74 | 0.0 | 8.0 | 0.03 | 1.22 | 1.22 | 98 | 1015.3 |
| 20260507174509 | 7 | 76 | 0.0 | 8.0 | 0.03 | 1.22 | 1.22 | 98 | 1015.2 |
| 20260507174001 | 7 | 113 | 1.6 | 4.8 | 0.05 | 1.22 | 1.22 | 99 | 1015.3 |
| 20260507173503 | 7 | 82 | 0.0 | 6.4 | 0.05 | 1.22 | 1.22 | 98 | 1015.2 |
| 20260507173118 | 7 | 82 | 1.6 | 6.4 | 0.05 | 1.22 | 1.22 | 98 | 1015.1 |
| 20260507172559 | 7 | 120 | 0.0 | 9.7 | 0.05 | 1.22 | 1.22 | 98 | 1015.0 |
| 20260507172058 | 7 | 159 | 0.0 | 4.8 | 0.05 | 1.22 | 1.22 | 98 | 1015.0 |
| 20260507171557 | 7 | 151 | 0.0 | 6.4 | 0.05 | 1.22 | 1.22 | 98 | 1014.8 |
| 20260507171057 | 7 | 77 | 1.6 | 16.1 | 0.03 | 1.19 | 1.19 | 98 | 1014.7 |
| 20260507170556 | 7 | 98 | 1.6 | 16.1 | 0.03 | 1.19 | 1.19 | 98 | 1014.7 |
| 20260507170058 | 7 | 160 | 0.0 | 8.0 | 0.03 | 1.19 | 1.19 | 98 | 1014.7 |
| 20260507165555 | 7 | 91 | 0.0 | 8.0 | 0.03 | 1.19 | 1.19 | 98 | 1014.7 |
| 20260507165055 | 7 | 90 | 1.6 | 9.7 | 0.03 | 1.19 | 1.19 | 98 | 1014.6 |
| 20260507164628 | 7 | 94 | 0.0 | 6.4 | 0.03 | 1.19 | 1.19 | 98 | 1014.6 |
| 20260507164054 | 7 | 11 | 1.6 | 6.4 | 0.00 | 1.17 | 1.17 | 98 | 1014.6 |
| 20260507163552 | 7 | 90 | 1.6 | 6.4 | 0.00 | 1.17 | 1.17 | 98 | 1014.5 |
| 20260507163055 | 7 | 71 | 0.0 | 6.4 | 0.00 | 1.17 | 1.17 | 98 | 1014.4 |
| 20260507162551 | 7 | 75 | 0.0 | 4.8 | 0.00 | 1.17 | 1.17 | 98 | 1014.5 |
| 20260507162052 | 7 | 63 | 0.0 | 9.7 | 0.00 | 1.17 | 1.17 | 98 | 1014.5 |
| 20260507161556 | 7 | 88 | 1.6 | 8.0 | 0.00 | 1.17 | 1.17 | 98 | 1014.5 |
| 20260507161051 | 7 | 71 | 0.0 | 12.9 | 0.00 | 1.17 | 1.17 | 98 | 1014.3 |
| 20260507160548 | 8 | 52 | 1.6 | 12.9 | 0.00 | 1.17 | 1.17 | 98 | 1014.3 |
| 20260507160048 | 8 | 70 | 1.6 | 8.0 | 0.00 | 1.17 | 1.17 | 98 | 1014.3 |
| 20260507155547 | 8 | 94 | 1.6 | 11.3 | 0.00 | 1.17 | 1.17 | 98 | 1014.3 |
| 20260507155048 | 8 | 5 | 1.6 | 11.3 | 0.00 | 1.17 | 1.17 | 98 | 1014.5 |
| 20260507154548 | 8 | 95 | 3.2 | 9.7 | 0.00 | 1.17 | 1.17 | 98 | 1014.4 |
| 20260507154046 | 8 | 71 | 0.0 | 9.7 | 0.00 | 1.17 | 1.17 | 98 | 1014.3 |
| 20260507153549 | 8 | 101 | 0.0 | 8.0 | 0.03 | 1.17 | 1.17 | 98 | 1014.3 |
| 20260507153046 | 8 | 52 | 0.0 | 8.0 | 0.03 | 1.17 | 1.17 | 98 | 1014.2 |
| 20260507152547 | 8 | 42 | 1.6 | 6.4 | 0.03 | 1.17 | 1.17 | 98 | 1014.0 |
| 20260507152044 | 8 | 71 | 0.0 | 6.4 | 0.05 | 1.17 | 1.17 | 98 | 1014.1 |
| 20260507151545 | 8 | 44 | 1.6 | 9.7 | 0.05 | 1.17 | 1.17 | 98 | 1013.9 |
| 20260507151047 | 8 | 90 | 1.6 | 9.7 | 0.05 | 1.17 | 1.17 | 98 | 1013.9 |
| 20260507150541 | 8 | 81 | 1.6 | 6.4 | 0.05 | 1.17 | 1.17 | 98 | 1013.8 |
| 20260507150045 | 8 | 42 | 1.6 | 6.4 | 0.05 | 1.17 | 1.17 | 98 | 1013.7 |
| 20260507145541 | 8 | 55 | 0.0 | 6.4 | 0.05 | 1.17 | 1.17 | 98 | 1013.7 |
| 20260507145041 | 8 | 57 | 1.6 | 6.4 | 0.05 | 1.17 | 1.17 | 98 | 1013.6 |
| 20260507144540 | 8 | 85 | 1.6 | 8.0 | 0.05 | 1.17 | 1.17 | 98 | 1013.6 |
| 20260507144039 | 8 | 24 | 1.6 | 8.0 | 0.05 | 1.17 | 1.17 | 98 | 1013.6 |
| 20260507143539 | 8 | 325 | 0.0 | 6.4 | 0.05 | 1.17 | 1.17 | 98 | 1013.4 |
| 20260507143041 | 8 | 349 | 1.6 | 8.0 | 0.05 | 1.17 | 1.17 | 98 | 1013.5 |
| 20260507142537 | 8 | 84 | 1.6 | 8.0 | 0.05 | 1.17 | 1.17 | 98 | 1013.5 |
| 20260507142037 | 8 | 64 | 1.6 | 4.8 | 0.03 | 1.14 | 1.14 | 98 | 1013.4 |
| 20260507141538 | 8 | 115 | 0.0 | 6.4 | 0.03 | 1.14 | 1.14 | 98 | 1013.5 |
| 20260507141040 | 8 | 86 | 1.6 | 6.4 | 0.03 | 1.14 | 1.14 | 98 | 1013.5 |
| 20260507140536 | 8 | 88 | 1.6 | 11.3 | 0.03 | 1.14 | 1.14 | 98 | 1013.4 |
| 20260507140041 | 8 | 103 | 1.6 | 11.3 | 0.00 | 1.12 | 1.12 | 98 | 1013.2 |
| 20260507135535 | 8 | 91 | 0.0 | 8.0 | 0.03 | 1.12 | 1.12 | 98 | 1013.4 |
| 20260507135035 | 8 | 5 | 1.6 | 8.0 | 0.03 | 1.12 | 1.12 | 98 | 1013.2 |
| 20260507134535 | 8 | 82 | 1.6 | 9.7 | 0.03 | 1.12 | 1.12 | 98 | 1013.2 |
| 20260507134034 | 8 | 53 | 3.2 | 9.7 | 0.03 | 1.12 | 1.12 | 98 | 1013.1 |
| 20260507133535 | 9 | 64 | 0.0 | 4.8 | 0.05 | 1.12 | 1.12 | 98 | 1013.0 |
| 20260507133035 | 8 | 64 | 0.0 | 6.4 | 0.05 | 1.12 | 1.12 | 98 | 1013.1 |
| 20260507132534 | 8 | 61 | 0.0 | 8.0 | 0.05 | 1.12 | 1.12 | 98 | 1013.1 |
| 20260507132033 | 8 | 79 | 3.2 | 8.0 | 0.05 | 1.12 | 1.12 | 98 | 1013.0 |
| 20260507131538 | 8 | 45 | 0.0 | 4.8 | 0.08 | 1.12 | 1.12 | 98 | 1013.1 |
| 20260507131033 | 8 | 76 | 1.6 | 8.0 | 0.08 | 1.12 | 1.12 | 98 | 1013.1 |
| 20260507130536 | 8 | 69 | 1.6 | 8.0 | 0.08 | 1.12 | 1.12 | 98 | 1013.1 |
| 20260507130038 | 8 | 34 | 1.6 | 6.4 | 0.08 | 1.12 | 1.12 | 98 | 1012.9 |
| 20260507125534 | 8 | 82 | 0.0 | 0.0 | 0.10 | 1.09 | 1.09 | 99 | 1013.0 |
| 20260507125030 | 8 | 342 | 0.0 | 4.8 | 0.10 | 1.09 | 1.09 | 98 | 1012.9 |
| 20260507124538 | 8 | 53 | 0.0 | 4.8 | 0.10 | 1.09 | 1.09 | 98 | 1012.8 |
| 20260507124030 | 8 | 85 | 0.0 | 4.8 | 0.10 | 1.09 | 1.09 | 98 | 1012.8 |
| 20260507123529 | 8 | 301 | 0.0 | 6.4 | 0.08 | 1.09 | 1.09 | 99 | 1012.7 |
| 20260507123029 | 8 | 296 | 1.6 | 6.4 | 0.08 | 1.09 | 1.09 | 98 | 1012.6 |
| 20260507122530 | 8 | 346 | 0.0 | 4.8 | 0.08 | 1.09 | 1.09 | 98 | 1012.6 |
| 20260507122026 | 8 | 42 | 0.0 | 8.0 | 0.05 | 1.07 | 1.07 | 98 | 1012.5 |
| 20260507121527 | 8 | 58 | 3.2 | 8.0 | 0.05 | 1.04 | 1.04 | 98 | 1012.5 |
| 20260507121026 | 8 | 67 | 3.2 | 6.4 | 0.05 | 1.04 | 1.04 | 99 | 1012.5 |
| 20260507120526 | 8 | 64 | 0.0 | 4.8 | 0.05 | 1.04 | 1.04 | 98 | 1012.4 |
| 20260507120026 | 8 | 67 | 1.6 | 4.8 | 0.03 | 1.02 | 1.02 | 98 | 1012.5 |
| 20260507115626 | 8 | 61 | 1.6 | 4.8 | 0.00 | 0.99 | 0.99 | 98 | 1012.4 |
| 20260507115024 | 8 | 66 | 1.6 | 8.0 | 0.00 | 0.99 | 0.99 | 98 | 1012.3 |
| 20260507114537 | 8 | 90 | 3.2 | 11.3 | 0.00 | 0.99 | 0.99 | 98 | 1012.2 |
| 20260507114024 | 8 | 59 | 1.6 | 11.3 | 0.00 | 0.99 | 0.99 | 98 | 1012.2 |
| 20260507113524 | 8 | 72 | 0.0 | 6.4 | 0.00 | 0.99 | 0.99 | 98 | 1012.3 |
| 20260507113039 | 9 | 78 | 0.0 | 4.8 | 0.00 | 0.99 | 0.99 | 99 | 1012.2 |
| 20260507112521 | 8 | 273 | 0.0 | 6.4 | 0.00 | 0.99 | 0.99 | 98 | 1012.1 |
| 20260507112021 | 8 | 61 | 1.6 | 6.4 | 0.00 | 0.99 | 0.99 | 98 | 1012.0 |
| 20260507111523 | 8 | 65 | 1.6 | 4.8 | 0.00 | 0.99 | 0.99 | 98 | 1012.0 |
| 20260507111019 | 8 | 79 | 1.6 | 6.4 | 0.00 | 0.99 | 0.99 | 98 | 1012.0 |
| 20260507110519 | 8 | 55 | 1.6 | 9.7 | 0.00 | 0.99 | 0.99 | 98 | 1012.0 |
| 20260507110019 | 9 | 5 | 1.6 | 9.7 | 0.00 | 0.99 | 0.99 | 98 | 1011.9 |
| 20260507105518 | 9 | 84 | 1.6 | 6.4 | 0.00 | 0.99 | 0.99 | 98 | 1011.9 |
| 20260507105018 | 8 | 52 | 1.6 | 6.4 | 0.00 | 0.99 | 0.99 | 98 | 1011.8 |
| 20260507104518 | 8 | 74 | 1.6 | 4.8 | 0.00 | 0.99 | 0.99 | 98 | 1011.7 |
| 20260507104017 | 9 | 90 | 1.6 | 12.9 | 0.00 | 0.99 | 0.99 | 98 | 1011.7 |
| 20260507103519 | 9 | 68 | 3.2 | 12.9 | 0.00 | 0.99 | 0.99 | 98 | 1011.7 |
| 20260507103020 | 9 | 343 | 0.0 | 8.0 | 0.00 | 0.99 | 0.99 | 98 | 1011.7 |
| 20260507102516 | 10 | 64 | 1.6 | 14.5 | 0.00 | 0.99 | 0.99 | 99 | 1011.7 |
| 20260507102015 | 10 | 36 | 3.2 | 14.5 | 0.03 | 0.99 | 0.99 | 99 | 1011.5 |
| 20260507101517 | 10 | 74 | 0.0 | 4.8 | 0.03 | 0.99 | 0.99 | 99 | 1011.5 |
| 20260507101018 | 10 | 60 | 0.0 | 4.8 | 0.03 | 0.99 | 0.99 | 99 | 1011.6 |
| 20260507100514 | 9 | 78 | 1.6 | 4.8 | 0.03 | 0.99 | 0.99 | 99 | 1011.6 |
| 20260507100014 | 9 | 81 | 0.0 | 4.8 | 0.03 | 0.99 | 0.99 | 99 | 1011.6 |
| 20260507095514 | 9 | 78 | 0.0 | 6.4 | 0.03 | 0.99 | 0.99 | 99 | 1011.5 |
| 20260507095014 | 9 | 73 | 0.0 | 6.4 | 0.03 | 0.99 | 0.99 | 99 | 1011.4 |
| 20260507094511 | 9 | 63 | 0.0 | 4.8 | 0.03 | 0.99 | 0.99 | 98 | 1011.4 |
| 20260507094011 | 8 | 57 | 0.0 | 4.8 | 0.03 | 0.99 | 0.99 | 98 | 1011.5 |
| 20260507093510 | 8 | 267 | 0.0 | 3.2 | 0.03 | 0.99 | 0.99 | 99 | 1011.3 |
| 20260507093010 | 8 | 267 | 0.0 | 3.2 | 0.03 | 0.99 | 0.99 | 99 | 1011.3 |
| 20260507092513 | 8 | 266 | 0.0 | 4.8 | 0.03 | 0.99 | 0.99 | 98 | 1011.2 |
| 20260507092010 | 9 | 67 | 0.0 | 4.8 | 0.00 | 0.99 | 0.99 | 98 | 1011.1 |
| 20260507091508 | 9 | 61 | 0.0 | 6.4 | 0.00 | 0.99 | 0.99 | 98 | 1011.1 |
| 20260507091007 | 9 | 29 | 1.6 | 9.7 | 0.00 | 0.99 | 0.99 | 98 | 1011.0 |
| 20260507090511 | 9 | 10 | 3.2 | 9.7 | 0.00 | 0.99 | 0.99 | 98 | 1010.9 |
| 20260507090006 | 9 | 79 | 0.0 | 4.8 | 0.00 | 0.99 | 0.99 | 99 | 1010.9 |
| 20260507085508 | 9 | 50 | 0.0 | 4.8 | 0.00 | 0.99 | 0.99 | 99 | 1010.8 |
| 20260507085006 | 9 | 74 | 1.6 | 6.4 | 0.00 | 0.99 | 0.99 | 99 | 1010.8 |
| 20260507084507 | 9 | 57 | 0.0 | 6.4 | 0.00 | 0.99 | 0.99 | 99 | 1010.7 |
| 20260507084004 | 9 | 63 | 0.0 | 0.0 | 0.00 | 0.99 | 0.99 | 99 | 1010.6 |
| 20260507083504 | 8 | 64 | 0.0 | 3.2 | 0.03 | 0.99 | 0.99 | 98 | 1010.6 |
| 20260507083004 | 8 | 65 | 0.0 | 6.4 | 0.03 | 0.99 | 0.99 | 99 | 1010.4 |
| 20260507082505 | 8 | 75 | 1.6 | 6.4 | 0.05 | 0.99 | 0.99 | 98 | 1010.5 |
| 20260507082002 | 9 | 84 | 0.0 | 4.8 | 0.05 | 0.99 | 0.99 | 98 | 1010.5 |
| 20260507081506 | 9 | 104 | 0.0 | 6.4 | 0.05 | 0.99 | 0.99 | 98 | 1010.4 |
| 20260507081001 | 9 | 59 | 1.6 | 6.4 | 0.08 | 0.99 | 0.99 | 99 | 1010.3 |
| 20260507080501 | 9 | 73 | 0.0 | 0.0 | 0.08 | 0.99 | 0.99 | 99 | 1010.3 |
| 20260507080001 | 9 | 54 | 0.0 | 4.8 | 0.10 | 0.99 | 0.99 | 99 | 1010.2 |
| 20260507075501 | 9 | 55 | 0.0 | 6.4 | 0.10 | 0.99 | 0.99 | 99 | 1010.3 |
| 20260507075100 | 9 | 53 | 0.0 | 6.4 | 0.13 | 0.99 | 0.99 | 99 | 1010.3 |
| 20260507074604 | 9 | 76 | 0.0 | 3.2 | 0.13 | 0.99 | 0.99 | 99 | 1010.1 |
| 20260507074101 | 8 | 62 | 1.6 | 3.2 | 0.13 | 0.99 | 0.99 | 99 | 1010.1 |
| 20260507073600 | 8 | 333 | 0.0 | 1.6 | 0.10 | 0.97 | 0.97 | 99 | 1010.1 |
| 20260507073102 | 8 | 332 | 0.0 | 4.8 | 0.13 | 0.97 | 0.97 | 99 | 1010.1 |
| 20260507072557 | 8 | 278 | 0.0 | 4.8 | 0.10 | 0.94 | 0.94 | 99 | 1010.0 |
| 20260507072056 | 8 | 52 | 0.0 | 1.6 | 0.08 | 0.91 | 0.91 | 99 | 1009.8 |
| 20260507071556 | 8 | 52 | 0.0 | 6.4 | 0.08 | 0.91 | 0.91 | 98 | 1009.8 |
| 20260507071056 | 8 | 51 | 0.0 | 6.4 | 0.05 | 0.89 | 0.89 | 98 | 1009.8 |
| 20260507070555 | 8 | 76 | 1.6 | 4.8 | 0.05 | 0.89 | 0.89 | 98 | 1009.9 |
| 20260507070057 | 8 | 90 | 1.6 | 6.4 | 0.05 | 0.89 | 0.89 | 98 | 1009.8 |
| 20260507065556 | 8 | 92 | 1.6 | 6.4 | 0.05 | 0.89 | 0.89 | 98 | 1009.7 |
| 20260507065053 | 8 | 71 | 0.0 | 6.4 | 0.03 | 0.86 | 0.86 | 98 | 1009.7 |
| 20260507064555 | 9 | 81 | 3.2 | 6.4 | 0.03 | 0.86 | 0.86 | 98 | 1009.7 |
| 20260507064053 | 9 | 76 | 0.0 | 6.4 | 0.05 | 0.86 | 0.86 | 99 | 1009.7 |
| 20260507063553 | 9 | 68 | 0.0 | 6.4 | 0.05 | 0.86 | 0.86 | 98 | 1009.6 |
| 20260507063053 | 9 | 268 | 0.0 | 4.8 | 0.03 | 0.84 | 0.84 | 98 | 1009.6 |
| 20260507062552 | 9 | 268 | 1.6 | 4.8 | 0.03 | 0.84 | 0.84 | 98 | 1009.6 |
| 20260507062051 | 9 | 268 | 0.0 | 6.4 | 0.03 | 0.84 | 0.84 | 98 | 1009.6 |
| 20260507061551 | 10 | 246 | 3.2 | 6.4 | 0.03 | 0.84 | 0.84 | 98 | 1009.4 |
| 20260507061052 | 10 | 159 | 0.0 | 0.0 | 0.03 | 0.84 | 0.84 | 99 | 1009.3 |
| 20260507060553 | 10 | 159 | 0.0 | 0.0 | 0.03 | 0.84 | 0.84 | 99 | 1009.2 |
| 20260507060057 | 10 | 82 | 0.0 | 0.0 | 0.03 | 0.84 | 0.84 | 99 | 1009.2 |
| 20260507055549 | 9 | 82 | 0.0 | 0.0 | 0.03 | 0.84 | 0.84 | 99 | 1009.2 |
| 20260507055047 | 9 | 82 | 0.0 | 1.6 | 0.03 | 0.84 | 0.84 | 99 | 1009.0 |
| 20260507054546 | 9 | 82 | 0.0 | 3.2 | 0.03 | 0.84 | 0.84 | 99 | 1009.1 |
| 20260507054047 | 8 | 83 | 0.0 | 3.2 | 0.00 | 0.81 | 0.81 | 98 | 1009.0 |
| 20260507053545 | 8 | 42 | 0.0 | 0.0 | 0.00 | 0.81 | 0.81 | 99 | 1009.0 |
| 20260507053046 | 9 | 39 | 0.0 | 0.0 | 0.00 | 0.81 | 0.81 | 99 | 1009.0 |
| 20260507052546 | 8 | 39 | 0.0 | 0.0 | 0.00 | 0.81 | 0.81 | 99 | 1009.0 |
| 20260507052043 | 8 | 39 | 0.0 | 0.0 | 0.00 | 0.81 | 0.81 | 99 | 1008.9 |
| 20260507051543 | 8 | 39 | 0.0 | 0.0 | 0.00 | 0.81 | 0.81 | 99 | 1008.9 |
| 20260507051041 | 8 | 38 | 0.0 | 0.0 | 0.00 | 0.81 | 0.81 | 99 | 1008.8 |
| 20260507050539 | 8 | 38 | 0.0 | 0.0 | 0.00 | 0.81 | 0.81 | 99 | 1008.6 |
| 20260507050042 | 8 | 38 | 0.0 | 0.0 | 0.00 | 0.81 | 0.81 | 99 | 1008.7 |
| 20260507045540 | 8 | 38 | 0.0 | 0.0 | 0.03 | 0.81 | 0.81 | 99 | 1008.6 |
| 20260507045037 | 8 | 39 | 0.0 | 0.0 | 0.03 | 0.81 | 0.81 | 99 | 1008.6 |
| 20260507044537 | 8 | 39 | 0.0 | 0.0 | 0.03 | 0.81 | 0.81 | 99 | 1008.7 |
| 20260507044035 | 8 | 39 | 0.0 | 0.0 | 0.03 | 0.81 | 0.81 | 99 | 1008.7 |
| 20260507043533 | 8 | 39 | 0.0 | 0.0 | 0.05 | 0.81 | 0.81 | 99 | 1008.5 |
| 20260507043035 | 8 | 39 | 0.0 | 0.0 | 0.05 | 0.81 | 0.81 | 99 | 1008.5 |
| 20260507042531 | 8 | 39 | 0.0 | 0.0 | 0.08 | 0.81 | 0.81 | 99 | 1008.4 |
| 20260507042029 | 8 | 355 | 0.0 | 0.0 | 0.10 | 0.81 | 0.81 | 98 | 1008.4 |
| 20260507041529 | 8 | 355 | 0.0 | 3.2 | 0.15 | 0.81 | 0.81 | 98 | 1008.3 |
| 20260507041029 | 8 | 355 | 0.0 | 3.2 | 0.15 | 0.81 | 0.81 | 98 | 1008.4 |
| 20260507040529 | 8 | 339 | 0.0 | 1.6 | 0.15 | 0.81 | 0.81 | 98 | 1008.3 |
| 20260507040028 | 8 | 313 | 0.0 | 3.2 | 0.13 | 0.79 | 0.79 | 98 | 1008.3 |
| 20260507035528 | 8 | 313 | 0.0 | 3.2 | 0.13 | 0.79 | 0.79 | 98 | 1008.3 |
| 20260507035028 | 8 | 313 | 0.0 | 0.0 | 0.15 | 0.79 | 0.79 | 99 | 1008.2 |
| 20260507034534 | 8 | 313 | 0.0 | 3.2 | 0.15 | 0.79 | 0.79 | 98 | 1008.3 |
| 20260507034027 | 8 | 313 | 0.0 | 3.2 | 0.15 | 0.79 | 0.79 | 98 | 1008.3 |
| 20260507033527 | 8 | 313 | 0.0 | 1.6 | 0.13 | 0.79 | 0.79 | 98 | 1008.4 |
| 20260507033026 | 8 | 313 | 0.0 | 3.2 | 0.13 | 0.76 | 0.76 | 98 | 1008.2 |
| 20260507032525 | 8 | 313 | 0.0 | 3.2 | 0.10 | 0.71 | 0.71 | 98 | 1008.1 |
| 20260507032025 | 8 | 313 | 0.0 | 3.2 | 0.08 | 0.71 | 0.71 | 98 | 1008.0 |
| 20260507031524 | 8 | 313 | 0.0 | 3.2 | 0.08 | 0.69 | 0.69 | 98 | 1007.9 |
| 20260507031025 | 8 | 313 | 0.0 | 1.6 | 0.08 | 0.69 | 0.69 | 98 | 1008.0 |
| 20260507030526 | 8 | 313 | 0.0 | 4.8 | 0.10 | 0.69 | 0.69 | 98 | 1007.9 |
| 20260507030024 | 8 | 313 | 0.0 | 4.8 | 0.13 | 0.69 | 0.69 | 98 | 1007.9 |
| 20260507025523 | 8 | 310 | 0.0 | 3.2 | 0.13 | 0.66 | 0.66 | 98 | 1007.8 |
| 20260507025023 | 8 | 310 | 0.0 | 3.2 | 0.13 | 0.66 | 0.66 | 98 | 1007.8 |
| 20260507024523 | 8 | 309 | 0.0 | 3.2 | 0.13 | 0.66 | 0.66 | 98 | 1007.8 |
| 20260507024022 | 8 | 306 | 0.0 | 4.8 | 0.13 | 0.66 | 0.66 | 98 | 1007.7 |
| 20260507023522 | 8 | 304 | 1.6 | 4.8 | 0.13 | 0.66 | 0.66 | 98 | 1007.6 |
| 20260507023021 | 8 | 5 | 0.0 | 4.8 | 0.10 | 0.64 | 0.64 | 98 | 1007.5 |
| 20260507022520 | 8 | 43 | 1.6 | 4.8 | 0.10 | 0.64 | 0.64 | 98 | 1007.6 |
| 20260507022021 | 8 | 227 | 0.0 | 6.4 | 0.08 | 0.61 | 0.61 | 98 | 1007.6 |
| 20260507021518 | 8 | 44 | 1.6 | 6.4 | 0.05 | 0.61 | 0.61 | 98 | 1007.6 |
| 20260507021018 | 8 | 10 | 1.6 | 4.8 | 0.05 | 0.58 | 0.58 | 98 | 1007.7 |
| 20260507020518 | 8 | 80 | 1.6 | 3.2 | 0.05 | 0.58 | 0.58 | 98 | 1007.7 |
| 20260507020027 | 8 | 291 | 0.0 | 3.2 | 0.03 | 0.56 | 0.56 | 98 | 1007.9 |
| 20260507015516 | 8 | 291 | 0.0 | 6.4 | 0.00 | 0.53 | 0.53 | 98 | 1007.8 |
| 20260507015016 | 8 | 91 | 0.0 | 6.4 | 0.00 | 0.53 | 0.53 | 97 | 1007.6 |
| 20260507014515 | 8 | 72 | 1.6 | 6.4 | 0.00 | 0.53 | 0.53 | 97 | 1007.6 |
| 20260507014015 | 8 | 355 | 1.6 | 8.0 | 0.00 | 0.53 | 0.53 | 98 | 1007.6 |
| 20260507013513 | 8 | 345 | 3.2 | 16.1 | 0.00 | 0.53 | 0.53 | 97 | 1007.5 |
| 20260507013018 | 8 | 76 | 1.6 | 16.1 | 0.03 | 0.53 | 0.53 | 97 | 1007.5 |
| 20260507012511 | 9 | 272 | 1.6 | 11.3 | 0.05 | 0.53 | 0.53 | 97 | 1007.5 |
| 20260507012010 | 9 | 42 | 0.0 | 12.9 | 0.08 | 0.53 | 0.53 | 97 | 1007.5 |
| 20260507011512 | 9 | 82 | 1.6 | 11.3 | 0.10 | 0.53 | 0.53 | 97 | 1007.5 |
| 20260507011008 | 10 | 76 | 0.0 | 9.7 | 0.15 | 0.53 | 0.53 | 98 | 1007.5 |
| 20260507010507 | 10 | 64 | 3.2 | 9.7 | 0.15 | 0.53 | 0.53 | 98 | 1007.4 |
| 20260507010007 | 10 | 107 | 0.0 | 4.8 | 0.20 | 0.53 | 0.53 | 98 | 1007.3 |
| 20260507005506 | 10 | 267 | 0.0 | 0.0 | 0.23 | 0.56 | 0.53 | 98 | 1007.5 |
| 20260507005006 | 10 | 267 | 0.0 | 0.0 | 0.25 | 0.56 | 0.53 | 98 | 1007.4 |
| 20260507004506 | 10 | 267 | 0.0 | 0.0 | 0.28 | 0.56 | 0.53 | 98 | 1007.3 |
| 20260507004005 | 10 | 267 | 0.0 | 3.2 | 0.30 | 0.56 | 0.53 | 98 | 1007.2 |
| 20260507003508 | 10 | 267 | 0.0 | 3.2 | 0.33 | 0.56 | 0.53 | 98 | 1007.2 |
| 20260507003006 | 10 | 267 | 0.0 | 3.2 | 0.33 | 0.53 | 0.51 | 98 | 1007.2 |
| 20260507002504 | 10 | 266 | 0.0 | 3.2 | 0.33 | 0.51 | 0.48 | 98 | 1007.3 |
| 20260507002003 | 10 | 266 | 0.0 | 3.2 | 0.33 | 0.48 | 0.46 | 98 | 1007.2 |
| 20260507001512 | 10 | 263 | 0.0 | 0.0 | 0.30 | 0.43 | 0.43 | 98 | 1007.1 |
| 20260507001003 | 10 | 263 | 0.0 | 3.2 | 0.28 | 0.43 | 0.41 | 97 | 1007.1 |
| 20260507000504 | 10 | 261 | 0.0 | 3.2 | 0.28 | 0.41 | 0.38 | 98 | 1006.9 |
| 20260507000002 | 10 | 229 | 0.0 | 0.0 | 0.25 | 0.36 | 0.33 | 98 | 1007.1 |
| 20260506235501 | 10 | 229 | 0.0 | 0.0 | 0.23 | 0.46 | 0.30 | 98 | 1007.1 |
| 20260506235100 | 10 | 229 | 0.0 | 0.0 | 0.20 | 0.43 | 0.28 | 98 | 1007.3 |
| 20260506234603 | 10 | 229 | 0.0 | 6.4 | 0.20 | 0.43 | 0.25 | 98 | 1007.2 |
| 20260506234100 | 11 | 229 | 0.0 | 6.4 | 0.20 | 0.41 | 0.23 | 98 | 1007.3 |
| 20260506233602 | 11 | 248 | 0.0 | 4.8 | 0.15 | 0.36 | 0.20 | 97 | 1007.2 |
| 20260506233101 | 11 | 248 | 0.0 | 4.8 | 0.15 | 0.33 | 0.18 | 97 | 1007.1 |
| 20260506232557 | 11 | 247 | 1.6 | 4.8 | 0.13 | 0.30 | 0.15 | 97 | 1007.1 |
| 20260506232058 | 11 | 178 | 0.0 | 4.8 | 0.10 | 0.28 | 0.13 | 97 | 1007.1 |
| 20260506231606 | 11 | 71 | 0.0 | 3.2 | 0.13 | 0.28 | 0.13 | 97 | 1007.0 |
| 20260506231057 | 11 | 63 | 0.0 | 4.8 | 0.13 | 0.28 | 0.13 | 97 | 1006.9 |
| 20260506230557 | 11 | 63 | 1.6 | 4.8 | 0.10 | 0.25 | 0.10 | 97 | 1006.8 |
| 20260506230112 | 11 | 94 | 1.6 | 8.0 | 0.08 | 0.23 | 0.08 | 97 | 1006.8 |
| 20260506225557 | 11 | 44 | 1.6 | 9.7 | 0.08 | 0.64 | 0.08 | 97 | 1006.7 |
| 20260506225055 | 11 | 325 | 3.2 | 16.1 | 0.05 | 0.61 | 0.05 | 96 | 1006.7 |
| 20260506224556 | 11 | 100 | 4.8 | 16.1 | 0.05 | 0.61 | 0.05 | 96 | 1006.7 |
| 20260506224055 | 11 | 69 | 3.2 | 9.7 | 0.05 | 0.61 | 0.05 | 96 | 1006.7 |
| 20260506223558 | 11 | 38 | 1.6 | 12.9 | 0.05 | 0.61 | 0.05 | 96 | 1006.7 |
| 20260506223054 | 11 | 58 | 4.8 | 14.5 | 0.05 | 0.61 | 0.05 | 96 | 1006.7 |
| 20260506222552 | 11 | 91 | 3.2 | 14.5 | 0.03 | 0.58 | 0.03 | 96 | 1006.7 |
| 20260506222054 | 11 | 65 | 3.2 | 9.7 | 0.03 | 0.58 | 0.03 | 96 | 1006.8 |
| 20260506221605 | 11 | 94 | 1.6 | 9.7 | 0.00 | 0.56 | 0.00 | 96 | 1006.8 |
| 20260506221050 | 11 | 101 | 3.2 | 17.7 | 0.00 | 0.56 | 0.00 | 96 | 1006.7 |
| 20260506220549 | 11 | 95 | 4.8 | 14.5 | 0.00 | 0.56 | 0.00 | 96 | 1006.8 |
| 20260506220049 | 11 | 87 | 3.2 | 14.5 | 0.00 | 0.56 | 0.00 | 96 | 1006.8 |
| 20260506215548 | 11 | 81 | 3.2 | 12.9 | 0.00 | 0.69 | 0.56 | 96 | 1006.7 |
| 20260506215051 | 11 | 104 | 6.4 | 12.9 | 0.00 | 0.69 | 0.56 | 96 | 1006.7 |
| 20260506214553 | 11 | 88 | 1.6 | 9.7 | 0.00 | 0.69 | 0.56 | 96 | 1006.7 |
| 20260506214046 | 11 | 96 | 3.2 | 16.1 | 0.00 | 0.69 | 0.56 | 95 | 1006.7 |
| 20260506213547 | 11 | 67 | 4.8 | 14.5 | 0.00 | 0.69 | 0.56 | 95 | 1006.7 |
| 20260506213047 | 11 | 68 | 3.2 | 11.3 | 0.00 | 0.69 | 0.56 | 95 | 1006.6 |
| 20260506212546 | 11 | 155 | 3.2 | 11.3 | 0.00 | 0.69 | 0.56 | 95 | 1006.6 |
| 20260506212046 | 11 | 87 | 3.2 | 11.3 | 0.00 | 0.69 | 0.56 | 95 | 1006.5 |
| 20260506211546 | 11 | 53 | 3.2 | 9.7 | 0.00 | 0.69 | 0.56 | 95 | 1006.5 |
| 20260506211048 | 11 | 44 | 3.2 | 12.9 | 0.00 | 0.69 | 0.56 | 95 | 1006.4 |
| 20260506210547 | 11 | 96 | 3.2 | 12.9 | 0.00 | 0.69 | 0.56 | 95 | 1006.5 |
| 20260506210054 | 11 | 333 | 3.2 | 14.5 | 0.00 | 0.69 | 0.56 | 95 | 1006.4 |
| 20260506205551 | 11 | 69 | 3.2 | 14.5 | 0.00 | 0.69 | 0.56 | 95 | 1006.4 |
| 20260506205045 | 11 | 80 | 1.6 | 12.9 | 0.00 | 0.69 | 0.56 | 95 | 1006.5 |
| 20260506204547 | 11 | 91 | 3.2 | 17.7 | 0.00 | 0.69 | 0.56 | 95 | 1006.3 |
| 20260506204044 | 11 | 73 | 4.8 | 17.7 | 0.00 | 0.69 | 0.56 | 94 | 1006.3 |
| 20260506203544 | 12 | 70 | 4.8 | 12.9 | 0.00 | 0.69 | 0.56 | 94 | 1006.2 |